Location: Nitra
(0.0000°N, 18.0833°E)
Time: 04:22:12
(UTC+02:00)

STRAND 1 - Pass Details

Date: 05 June 2023
Orbit: 767 x 778 km, 98.4° (Epoch: 01 October)

Event Time Altitude Azimuth Distance (km) Brightness Sun altitude
Rises 19:45:57 0° 353° (N) 3,244 ? -13.8°
Reaches altitude 10° 19:48:31 10° 342° (NNW) 2,318 ? -14.4°
Maximum altitude 19:52:54 29° 283° (WNW) 1,380 ? -15.4°
Drops below altitude 10° 19:57:19 10° 223° (SW) 2,321 ? -16.4°
Sets 19:59:53 0° 212° (SSW) 3,249 ? -17.0°
